COSMOS 712

Satellite information

Favourite Embed

Satellite Type and Status

PAYLOADIN ORBIT

Key statistics

Satellite COSMOS 712 at a glance.

Uptime

18450

Days in orbit

Revolutions

≈ 12.5

Per day

Orbit

LEO

Low Earth Orbit

Inclination

74.0

Latest

Satellite identification and parameters

Extended collection of information and parameters for COSMOS 712.

Object identification

Identified? True

Debris? False

Object name: COSMOS 712

International designator: 1975-016B

Object number (NORAD): 7679

Object ID (CCSDS): 7679

Country: COMMONWEALTH OF INDEPENDENT STATES (CIS)

Current information (Y/N): Y

RCS size: MEDIUM

Orbital parameters

Period: 114.882 minutes

Inclination: 74.0043 deg

SMA: 7828.194 km

Apoapsis: 1489.503 km

Periapsis: 1410.616 km

RAAN: 147.296 deg

Eccentricy: 0.00503862

Argument of periapsis: 347.4344 deg

Mean anomaly: 68.9284 deg

Mean motion: 12.53459675 rev/day

Mean motion (dot): -0.00000016 rev/day2

B* drag term: -0.000001142703 1/REarth

Two-line elements (TLE)

Creation date: Sept. 3, 2025, 2:21 a.m.

Reference frame: TEME

Reference center: EARTH

Epoch: Sept. 2, 2025, 7:31 p.m. UTC

TLE line 0: 0 COSMOS 712

TLE line 1: 1 07679U 75016B 25245.81381587 -.00000016 00000-0 -11427-5 0 9996

TLE line 2: 2 07679 74.0043 147.2960 0050386 347.4344 68.9284 12.53459675311244

Live tracking on map

Real-time ground track for satellite COSMOS 712.

In-orbit conjunctions

There are no conjunctions computed for COSMOS 712, at the moment. Check back to stay up to date, as we update our databases every day.

Go to all conjunctions

Associated space launch

Military communications satellites

COSMOS 712 was lifted into orbit during the mission ‘Kosmos-3M | Strela-1M 81-88’, on board a Kosmos-3M space rocket.

The launch took place on Feb. 28, 1975, 2:01 p.m. from 132/2.

For more information about the launch, click the button.

Launch to space Kosmos-3M | Strela-1M 81-88
Kosmos-3M | Strela-1M 81-88

Agency: N/A

Status: Launch Successful

Launch date: Feb. 28, 1975, 2:01 p.m. UTC

Rocket: Kosmos-3M

Launch pad: 132/2

Location: Plesetsk Cosmodrome, Russian Federation

...

Latest news about this satellite

There are no fresh news available about this satellite. Check back as we update our databases every day.


Newsletter sign-up

Weekly statistics, charts and insights to help you stay on top of the space industry.